This demonstration page uses our WeatherBlox Daily Observations layout. Learn more.

Left ArrowRight Arrow

Hourly Observations for November 20, 2015

Temp ( °F °C ) Dew Point ( °F °C ) Humidity (%) Winds ( mph kmh ) Pressure ( in mb ) Visibility ( mi km ) Precip ( " mm )
12:51 am 00:51 Clear 45 7.2 29 -1.7 54 54 E 8 13 29.99 1016 10 16.0934 N/A
1:51 am 01:51 Clear 41 5 28 -2.2 60 60 N N/A 30 1016 10 16.0934 N/A
2:51 am 02:51 Clear 38 3.3 27 -2.8 65 65 N N/A 29.98 1015 10 16.0934 N/A
3:51 am 03:51 Clear 38 3.3 27 -2.8 65 65 N N/A 29.97 1015 10 16.0934 N/A
4:51 am 04:51 Clear 36 2.2 26 -3.3 67 67 NW 5 7 29.98 1015 10 16.0934 N/A
5:51 am 05:51 Clear 37 2.8 27 -2.8 67 67 NNW 3 6 30.01 1016 10 16.0934 N/A
6:51 am 06:51 Clear 36 2.2 27 -2.8 70 70 N N/A 30.04 1017 10 16.0934 N/A
7:51 am 07:51 Sunny 42 5.6 29 -1.7 60 60 N N/A 30.04 1017 10 16.0934 N/A
8:51 am 08:51 Sunny 49 9.4 29 -1.7 46 46 N N/A 30.04 1017 10 16.0934 N/A
9:51 am 09:51 Sunny 54 12.2 29 -1.7 38 38 N N/A 30.04 1017 10 16.0934 N/A
10:51 am 10:51 Sunny 60 15.6 29 -1.7 31 31 N N/A 30.01 1016 10 16.0934 N/A
11:51 am 11:51 Sunny 65 18.3 28 -2.2 25 25 N N/A 29.97 1015 10 16.0934 N/A
12:51 pm 12:51 Sunny 66 18.9 28 -2.2 24 24 VRB 3 6 29.94 1014 10 16.0934 N/A
1:51 pm 13:51 Sunny 68 20 27 -2.8 21 21 VRB 3 6 29.92 1013 10 16.0934 N/A
2:51 pm 14:51 Sunny 69 20.6 27 -2.8 21 21 WSW 7 11 29.9 1013 10 16.0934 N/A
3:51 pm 15:51 Sunny 69 20.6 27 -2.8 21 21 W 12 19 29.9 1013 10 16.0934 N/A
4:51 pm 16:51 Sunny 66 18.9 28 -2.2 24 24 W 10 17 29.91 1013 10 16.0934 N/A
5:51 pm 17:51 Clear 60 15.6 28 -2.2 30 30 W 12 19 29.92 1013 10 16.0934 N/A
6:51 pm 18:51 Clear 55 12.8 29 -1.7 37 37 N N/A 29.96 1015 10 16.0934 N/A
7:51 pm 19:51 Clear 52 11.1 31 -0.6 45 45 NNW 6 9 29.98 1015 10 16.0934 N/A
8:51 pm 20:51 Clear 51 10.6 33 0.6 50 50 N 8 13 29.99 1016 10 16.0934 N/A
9:51 pm 21:51 Clear 55 12.8 32 undefined 42 42 N 9 15 29.98 1015 10 16.0934 N/A
10:51 pm 22:51 Clear 55 12.8 31 -0.6 40 40 NNW 3 6 29.99 1016 10 16.0934 N/A
11:51 pm 23:51 Clear 48 8.9 31 -0.6 52 52 N N/A 30.01 1016 10 16.0934 N/A

Powered by AerisWeather